Current weather by "City, St" or "zip code"  
 
Advertise Here

Current Conditions: Destin, Destin-Ft. Walton Beach Airport, FL

Fair


47.0 F

Last Updated on Jan 18 2021, 2:53 am CST
Humidity: 69%
Wind Speed: NW 6.9 mph
Barometer 30.10 in
Dewpoint: 37.0 F
Visibility: 10.00 mi
Precip: --
Heat Index: NA
Wind Chill: 44 F
Current conditions at:

Destin, Destin-Ft. Walton Beach Airport, FL (KDTS)

Lat: 30.39333 Lon: 86.4675

Local Radar Image active severe weather and emergency alerts image image weather storm and storm spotter reports image weather observation monitoring service image
Local
Radar
Active
Alerts
Storm Reports Obs
Monitoring

Sign-up For Email & Text Message Weather Alert Notification Services


Advertise Here

Observation History for Destin, Destin-Ft. Walton Beach Airport, FL


Time Wind
(mph)
Vis
(mi)
Weather Precip (in) Temperature (F) Relative
Humidity
Wind
Chill
(F)
Heat
Index
(F)
Pressure
Air Dwpt altimeter
(in)
sea level
(mb)
Rmks
2:53 am CST NW 6.9 10.00 Fair -- 47.0 37.0 69% 44 NA 30.10 1019.3
1:53 am CST NW 5.8 10.00 Fair -- 50.0 39.0 66% 48 NA 30.10 1019.0
12:53 am CST 4.6 10.00 Fair -- 55.0 42.1 62% 54 NA 30.07 1018.1
11:53 pm CST 4.6 10.00 Fair -- 56.0 43.0 62% 55 NA 30.05 1017.5
10:53 pm CST 5.8 10.00 Fair -- 58.0 41.0 53% 57 NA 30.05 1017.5
9:53 pm CST N 0.0 10.00 Fair -- 53.0 42.1 66% NA NA 30.05 1017.6
8:53 pm CST 4.6 10.00 Fair -- 54.0 41.0 62% 53 NA 30.05 1017.4
7:53 pm CST 3.5 10.00 Fair -- 54.0 39.9 59% NA NA 30.04 1017.3
6:53 pm CST 4.6 10.00 Fair -- 56.0 37.9 51% 55 NA 30.02 1016.4
5:53 pm CST W 6.9 10.00 Fair -- 57.0 36.0 45% 56 NA 30.01 1016.1
4:53 pm CST W 5.8 10.00 Fair -- 56.0 36.0 47% 55 NA 30.00 1015.9
3:53 pm CST SW 6.9 10.00 Fair -- 58.0 36.0 44% 57 NA 30.00 1015.7
2:53 pm CST 5.8 10.00 Fair -- 57.0 35.1 44% 56 NA 30.00 1015.6
1:53 pm CST 6.9 10.00 Fair -- 57.0 34.0 42% 56 NA 30.01 1016.1
12:53 pm CST 5.8 10.00 Fair -- 56.0 33.1 42% 55 NA 30.02 1016.5
11:53 am CST 4.6 10.00 Fair -- 55.0 35.1 47% 54 NA 30.06 1017.8
10:53 am CST N 0.0 10.00 Fair -- 54.0 28.9 38% NA NA 30.09 1018.9
9:53 am CST N 3.5 10.00 Fair -- 53.0 35.1 51% NA NA 30.12 1019.8
8:53 am CST N 0.0 10.00 Fair -- 50.0 36.0 59% NA NA 30.11 1019.4
7:53 am CST N 0.0 10.00 Fair -- 45.0 41.0 86% NA NA 30.09 1018.8
6:53 am CST N 0.0 10.00 Fair -- 38.0 33.1 83% NA NA 30.07 1018.3
5:53 am CST N 0.0 10.00 Fair -- 38.0 32.0 79% NA NA 30.06 1018.0
4:53 am CST N 0.0 10.00 Fair -- 42.0 35.1 76% NA NA 30.04 1017.1
3:53 am CST N 0.0 10.00 Fair -- 41.0 35.1 79% NA NA 30.03 1016.8

Regional Weather Observation


Crestview, Sikes Airport, FL (KCEW)

Fair
32.0 F

Valparaiso / Eglin Air Force Base, FL (KVPS)

Fair
46.0 F

Destin, Destin-Ft. Walton Beach Airport, FL (KDTS)

Fair
47.0 F

DeFuniak Spr AP, FL (K54J)

Fair
38.0 F

Milton, Whiting Field South, FL (KNDZ)

Fair
41.0 F

Milton - Whiting Field Naval Air Station North, FL (KNSE)

Fair
36.0 F